Tracking 19484 objects as of 18-Jan-2019
HD Live streaming from Space Station
objects crossing your sky now

DMSP 5D-2 F14 (USA 131)

Track DMSP 5D-2 F14 (USA 131) now!
10-day predictions
DMSP 5D-2 F14 (USA 131) is classified as:


NORAD ID: 24753
Int'l Code: 1997-012A
Perigee: 840.9 km
Apogee: 852.5 km
Inclination: 99.0 °
Period: 101.7 minutes
Semi major axis: 7217 km
RCS: Unknown
Launch date: April 4, 1997
Source: United States (US)
Launch site: AIR FORCE WESTERN TEST RANGE (AFWTR)

Near-polar orbits; investigate Earth's environment.
aabbcc
Your satellite tracking list
Your tracking list is empty




NASA's NSSDC Master Catalog

Two Line Element Set (TLE):
1 24753U 97012A   19018.57676364  .00000022  00000-0  34781-4 0  9994
2 24753  99.0304  23.4371 0008025 223.2938 136.7605 14.15818115125463
Source of the keplerian elements: McCants